Location: Hermaringen
(48.5952°N, 10.2585°E)
Time: 04:48:58
(UTC+00:00)

Tiangong - Visible Passes

Search period start: 17 January 2026 00:00
Search period end: 27 January 2026 00:00
Orbit: 378 x 394 km, 41.5° (Epoch: 16 January)

Date Brightness Start Highest point End Pass type
(mag) Time Alt. Az. Time Alt. Az. Time Alt. Az.
17 Jan 0.9 06:12:26 10° S 06:13:58 13° SSE 06:15:30 10° SE visible
19 Jan 0.6 05:49:53 10° SSW 05:52:02 17° SSE 05:54:12 10° ESE visible
20 Jan 0.6 04:51:56 12° S 04:52:58 13° SSE 04:54:32 10° SE visible
20 Jan 0.1 06:26:37 10° SW 06:29:11 22° S 06:31:45 10° ESE visible
21 Jan 0.1 05:27:53 12° SW 05:30:01 20° S 05:32:28 10° ESE visible
22 Jan 0.5 04:31:27 16° SSE 04:31:27 16° SSE 04:33:01 10° ESE visible
22 Jan -0.1 06:04:34 10° SW 06:07:08 22° S 06:09:43 10° SE visible
23 Jan -0.3 05:07:10 20° SSW 05:07:55 22° S 05:10:29 10° ESE visible
24 Jan 1.0 04:10:35 13° SE 04:10:35 13° SE 04:11:07 10° ESE visible
24 Jan -0.1 05:42:48 12° SW 05:44:58 21° S 05:47:26 10° SE visible
25 Jan -0.1 04:46:10 21° SSE 04:46:10 21° SSE 04:48:16 10° SE visible
25 Jan 0.4 06:20:13 10° SW 06:21:56 14° SSW 06:23:39 10° SSE visible
26 Jan 0.0 05:21:44 15° SW 05:22:41 17° SSW 05:24:53 10° SSE visible
